KG7KID-7 Weather Reports


Display with metric or nautical units.
time (UTC)temp
F
wind
direction
speed
MPH
gust
MPH
rain 1hr
in
rain 24hr
in
rain mn
in
humidity
%
barometer
mb
20260507062406 0 0.0 0.0 0.00 0.00 0.00 980.3
20260507061950 0 0.0 0.0 0.00 0.00 0.00 980.2
20260507061906 0 0.0 0.0 0.00 0.00 0.00 980.2
20260507060906 0 0.0 0.0 0.00 0.00 0.00 980.1
20260507060406 0 0.0 0.0 0.00 0.00 0.00 980.0
20260507055906 0 0.0 0.0 0.00 0.00 0.00 979.9
20260507055406 0 0.0 0.0 0.00 0.00 0.00 979.9
20260507054906 0 0.0 0.0 0.00 0.00 0.00 979.9
20260507053406 0 0.0 0.0 0.00 0.00 0.00 979.8
20260507052906 0 0.0 0.0 0.00 0.00 0.00 979.7
20260507052407 0 0.0 0.0 0.00 0.00 0.00 979.8
20260507051941 0 0.0 0.0 0.00 0.00 0.00 979.8
20260507051906 0 0.0 0.0 0.00 0.00 0.00 979.8
20260507051406 0 0.0 0.0 0.00 0.00 0.00 979.7
20260507050406 0 0.0 0.0 0.00 0.00 0.00 979.6
20260507045906 0 0.0 0.0 0.00 0.00 0.00 979.5
20260507043905 0 0.0 0.0 0.00 0.00 0.00 979.3
20260507043405 0 0.0 0.0 0.00 0.00 0.00 979.3
20260507043011 0 0.0 0.0 0.00 0.00 0.00 979.2
20260507042905 0 0.0 0.0 0.00 0.00 0.00 979.2
20260507042444 0 0.0 0.0 0.00 0.00 0.00 979.1
20260507042405 0 0.0 0.0 0.00 0.00 0.00 979.1
20260507042031 0 0.0 0.0 0.00 0.00 0.00 979.0
20260507041906 0 0.0 0.0 0.00 0.00 0.00 979.0
20260507034945 0 0.0 0.0 0.00 0.00 0.00 978.5
20260507034906 0 0.0 0.0 0.00 0.00 0.00 978.5
20260507014657 77 259 2.0 10.0 0.00 0.00 0.00 20 976.3
20260507012656 80 195 4.0 8.0 0.00 0.00 0.00 17 976.1
20260507012157 80 0 0.0 5.0 0.00 0.00 0.00 18 976.1
20260507011657 80 0 0.0 11.0 0.00 0.00 0.00 17 976.1
20260507004156 82 256 1.0 6.0 0.00 0.00 0.00 17 976.2
20260506235437 81 277 3.0 8.0 0.00 0.00 0.00 17 975.4
20260506234817 81 255 5.0 11.0 0.00 0.00 0.00 17 975.5
20260506234318 81 274 4.0 11.0 0.00 0.00 0.00 17 975.4
20260506232816 81 0 0.0 6.0 0.00 0.00 0.00 17 975.6
20260506231816 80 263 1.0 9.0 0.00 0.00 0.00 18 975.7
20260506231036 81 0 0.0 10.0 0.00 0.00 0.00 17 975.7
20260506230536 81 281 1.0 10.0 0.00 0.00 0.00 18 975.9
20260506230036 80 272 2.0 7.0 0.00 0.00 0.00 18 975.8
20260506225928 80 0 0.0 5.0 0.00 0.00 0.00 18 975.9
20260506225536 80 0 0.0 5.0 0.00 0.00 0.00 18 975.9
20260506225301 79 0 0.0 10.0 0.00 0.00 0.00 18 976.0
20260506225035 79 0 0.0 10.0 0.00 0.00 0.00 18 976.0
20260506224800 80 287 1.0 10.0 0.00 0.00 0.00 18 976.1
20260506224536 80 287 1.0 10.0 0.00 0.00 0.00 18 976.1
20260506224302 80 0 0.0 4.0 0.00 0.00 0.00 18 976.1
20260506224036 80 0 0.0 4.0 0.00 0.00 0.00 18 976.1
20260506223536 79 0 0.0 2.0 0.00 0.00 0.00 18 976.1
20260506223123 80 0 0.0 9.0 0.00 0.00 0.00 18 976.3
20260506222839 80 0 0.0 9.0 0.00 0.00 0.00 18 976.3
20260506222620 79 0 0.0 6.0 0.00 0.00 0.00 19 976.4
20260506222340 79 0 0.0 6.0 0.00 0.00 0.00 19 976.4
20260506221839 79 0 0.0 8.0 0.00 0.00 0.00 19 976.5
20260506221651 78 0 0.0 8.0 0.00 0.00 0.00 19 976.6
20260506221339 78 0 0.0 8.0 0.00 0.00 0.00 19 976.6
20260506220839 78 0 0.0 10.0 0.00 0.00 0.00 19 976.7
20260506220639 78 286 1.0 12.0 0.00 0.00 0.00 20 976.8
20260506220339 78 286 1.0 12.0 0.00 0.00 0.00 20 976.8
20260506215840 78 294 4.0 12.0 0.00 0.00 0.00 19 977.0
20260506215646 78 0 0.0 15.0 0.00 0.00 0.00 19 977.0
20260506215339 78 0 0.0 15.0 0.00 0.00 0.00 19 977.0
20260506214340 78 289 3.0 18.0 0.00 0.00 0.00 19 977.0
20260506214206 78 0 0.0 10.0 0.00 0.00 0.00 20 977.2
20260506213839 78 0 0.0 10.0 0.00 0.00 0.00 20 977.2
20260506213339 78 266 1.0 10.0 0.00 0.00 0.00 19 977.3
20260506212712 77 0 0.0 9.0 0.00 0.00 0.00 20 977.3
20260506212339 77 0 0.0 9.0 0.00 0.00 0.00 20 977.3
20260506212215 77 271 2.0 9.0 0.00 0.00 0.00 20 977.4
20260506211839 77 271 2.0 9.0 0.00 0.00 0.00 20 977.4
20260506211639 77 0 0.0 13.0 0.00 0.00 0.00 20 977.6
20260506211339 77 0 0.0 13.0 0.00 0.00 0.00 20 977.6
20260506210839 76 0 0.0 13.0 0.00 0.00 0.00 20 977.6
20260506210549 76 0 0.0 10.0 0.00 0.00 0.00 21 977.7
20260506210339 76 0 0.0 10.0 0.00 0.00 0.00 21 977.7
20260506210134 76 260 1.0 11.0 0.00 0.00 0.00 21 977.7
20260506205839 76 260 1.0 11.0 0.00 0.00 0.00 21 977.7
20260506205536 77 285 2.0 11.0 0.00 0.00 0.00 20 977.9
20260506205339 77 285 2.0 11.0 0.00 0.00 0.00 20 977.9
20260506205141 76 0 0.0 3.0 0.00 0.00 0.00 21 977.8
20260506204839 76 0 0.0 3.0 0.00 0.00 0.00 21 977.8
20260506204339 75 0 0.0 1.0 0.00 0.00 0.00 21 978.0
20260506204256 76 0 0.0 1.0 0.00 0.00 0.00 21 977.9
20260506203839 76 0 0.0 1.0 0.00 0.00 0.00 21 977.9
20260506203608 76 0 0.0 2.0 0.00 0.00 0.00 21 978.1
20260506203339 76 0 0.0 2.0 0.00 0.00 0.00 21 978.1
20260506202339 76 0 0.0 5.0 0.00 0.00 0.00 21 978.3
20260506202142 75 0 0.0 6.0 0.00 0.00 0.00 22 978.4
20260506201839 75 0 0.0 6.0 0.00 0.00 0.00 22 978.4
20260506201202 75 239 1.0 5.0 0.00 0.00 0.00 23 978.5
20260506200839 75 239 1.0 5.0 0.00 0.00 0.00 23 978.5
20260506200602 74 0 0.0 5.0 0.00 0.00 0.00 23 978.5
20260506200339 74 0 0.0 5.0 0.00 0.00 0.00 23 978.5
20260506200113 74 0 0.0 4.0 0.00 0.00 0.00 23 978.6
20260506195839 74 0 0.0 4.0 0.00 0.00 0.00 23 978.6
20260506195645 73 0 0.0 4.0 0.00 0.00 0.00 24 978.7
20260506195339 73 0 0.0 4.0 0.00 0.00 0.00 24 978.7
20260506195153 73 0 0.0 1.0 0.00 0.00 0.00 24 978.8
20260506194839 73 0 0.0 1.0 0.00 0.00 0.00 24 978.8
20260506194339 73 0 0.0 7.0 0.00 0.00 0.00 24 978.9
20260506194149 73 0 0.0 7.0 0.00 0.00 0.00 24 979.0
20260506193839 73 0 0.0 7.0 0.00 0.00 0.00 24 979.0
20260506193700 72 0 0.0 13.0 0.00 0.00 0.00 24 978.9
20260506193339 72 0 0.0 13.0 0.00 0.00 0.00 24 978.9
20260506193136 72 0 0.0 13.0 0.00 0.00 0.00 24 979.0
20260506192839 72 0 0.0 13.0 0.00 0.00 0.00 24 979.0
20260506192639 72 0 0.0 4.0 0.00 0.00 0.00 25 978.2
20260506192339 72 0 0.0 4.0 0.00 0.00 0.00 25 978.2
20260506192145 72 0 0.0 3.0 0.00 0.00 0.00 24 978.3
20260506191839 72 0 0.0 3.0 0.00 0.00 0.00 24 978.3
20260506191339 72 0 0.0 2.0 0.00 0.00 0.00 25 978.5
20260506190839 72 0 0.0 9.0 0.00 0.00 0.00 24 978.6
20260506190339 71 0 0.0 9.0 0.00 0.00 0.00 26 978.5
20260506190243 69 0 0.0 8.0 0.00 0.00 0.00 26 978.7
20260506185839 69 0 0.0 8.0 0.00 0.00 0.00 26 978.7
20260506185759 69 0 0.0 10.0 0.00 0.00 0.00 26 978.8
20260506185339 69 0 0.0 10.0 0.00 0.00 0.00 26 978.8
20260506185253 69 0 0.0 10.0 0.00 0.00 0.00 26 978.9
20260506184839 69 0 0.0 10.0 0.00 0.00 0.00 26 978.9
20260506184339 69 0 0.0 6.0 0.00 0.00 0.00 26 978.9
20260506184117 69 0 0.0 6.0 0.00 0.00 0.00 26 979.0
20260506183839 69 0 0.0 6.0 0.00 0.00 0.00 26 979.0
20260506183119 68 0 0.0 5.0 0.00 0.00 0.00 26 979.3
20260506182839 68 0 0.0 5.0 0.00 0.00 0.00 26 979.3
20260506182627 69 0 0.0 5.0 0.00 0.00 0.00 27 979.3
20260506182339 69 0 0.0 5.0 0.00 0.00 0.00 27 979.3
20260506181839 68 0 0.0 4.0 0.00 0.00 0.00 27 979.3
20260506181640 68 0 0.0 4.0 0.00 0.00 0.00 28 979.4
20260506181339 68 0 0.0 4.0 0.00 0.00 0.00 28 979.4
20260506181121 68 0 0.0 4.0 0.00 0.00 0.00 28 979.4
20260506180839 68 0 0.0 4.0 0.00 0.00 0.00 28 979.4
20260506180549 69 0 0.0 12.0 0.00 0.00 0.00 26 979.4
20260506180339 69 0 0.0 12.0 0.00 0.00 0.00 26 979.4
20260506180125 69 0 0.0 12.0 0.00 0.00 0.00 26 979.4
20260506175839 69 0 0.0 12.0 0.00 0.00 0.00 26 979.4
20260506175726 68 0 0.0 1.0 0.00 0.01 0.00 27 979.4
20260506175339 68 0 0.0 1.0 0.00 0.01 0.00 27 979.4
20260506174839 67 0 0.0 1.0 0.00 0.01 0.00 28 979.5
20260506174628 67 0 0.0 1.0 0.00 0.01 0.00 28 979.6
20260506174339 67 0 0.0 1.0 0.00 0.01 0.00 28 979.6
20260506174200 66 0 0.0 1.0 0.00 0.01 0.00 29 979.7
20260506173839 66 0 0.0 1.0 0.00 0.01 0.00 29 979.7
20260506173339 66 0 0.0 1.0 0.00 0.01 0.00 29 979.7
20260506173107 65 0 0.0 3.0 0.00 0.01 0.00 29 979.8
20260506172838 65 0 0.0 3.0 0.00 0.01 0.00 29 979.8
20260506172052 65 0 0.0 3.0 0.00 0.01 0.00 30 979.8
20260506171839 65 0 0.0 3.0 0.00 0.01 0.00 30 979.8
20260506171339 65 0 0.0 2.0 0.00 0.01 0.00 31 979.8
20260506171148 65 0 0.0 2.0 0.00 0.01 0.00 31 979.8
20260506170839 65 0 0.0 2.0 0.00 0.01 0.00 31 979.8
20260506170339 65 0 0.0 9.0 0.00 0.01 0.00 33 979.8
20260506170052 64 213 1.0 9.0 0.00 0.01 0.00 33 979.8
20260506165839 64 213 1.0 9.0 0.00 0.01 0.00 33 979.8
20260506165339 64 0 0.0 1.0 0.00 0.01 0.00 34 979.8
20260506165127 63 0 0.0 1.0 0.00 0.01 0.00 34 979.9
20260506164838 63 0 0.0 1.0 0.00 0.01 0.00 34 979.9
20260506164340 63 0 0.0 1.0 0.00 0.01 0.00 35 979.9
20260506164156 63 0 0.0 0.0 0.00 0.01 0.00 35 979.9
20260506163839 63 0 0.0 0.0 0.00 0.01 0.00 35 979.9
20260506163221 63 0 0.0 1.0 0.00 0.03 0.00 35 979.8
20260506162839 63 0 0.0 1.0 0.00 0.03 0.00 35 979.8
20260506162159 62 0 0.0 1.0 0.00 0.03 0.00 36 979.9
20260506161839 62 0 0.0 1.0 0.00 0.03 0.00 36 979.9
20260506161649 62 0 0.0 1.0 0.00 0.03 0.00 37 979.9
20260506161338 62 0 0.0 1.0 0.00 0.03 0.00 37 979.9
20260506160734 61 0 0.0 2.0 0.00 0.03 0.00 38 979.9
20260506160339 61 0 0.0 2.0 0.00 0.03 0.00 38 979.9
20260506160214 61 0 0.0 2.0 0.00 0.03 0.00 39 979.9
20260506155839 61 0 0.0 2.0 0.00 0.03 0.00 39 979.9
20260506154839 60 0 0.0 1.0 0.00 0.03 0.00 41 979.8
20260506154339 59 0 0.0 0.0 0.00 0.03 0.00 42 979.9
20260506153839 58 0 0.0 0.0 0.00 0.03 0.00 42 979.9
20260506153517 58 0 0.0 0.0 0.00 0.03 0.00 43 979.9
20260506153339 58 0 0.0 0.0 0.00 0.03 0.00 43 979.9
20260506153138 0 0.0 0.0 0.00 0.03 0.00 979.9
20260506152838 0 0.0 0.0 0.00 0.03 0.00 979.9
20260506151839 0 0.0 0.0 0.00 0.03 0.00 979.9
20260506151557 0 0.0 0.0 0.00 0.03 0.00 980.0
20260506151339 0 0.0 0.0 0.00 0.03 0.00 980.0
20260506151206 0 0.0 0.0 0.00 0.03 0.00 980.0
20260506150838 0 0.0 0.0 0.00 0.03 0.00 980.0
20260506150339 0 0.0 0.0 0.00 0.03 0.00 980.0
20260506150212 0 0.0 0.0 0.00 0.03 0.00 980.0
20260506145839 0 0.0 0.0 0.00 0.03 0.00 980.0
20260506145634 0 0.0 0.0 0.00 0.03 0.00 980.0
20260506145339 0 0.0 0.0 0.00 0.03 0.00 980.0
20260506144838 0 0.0 0.0 0.00 0.03 0.00 979.9
20260506144338 0 0.0 0.0 0.00 0.03 0.00 980.1
20260506143839 0 0.0 0.0 0.00 0.03 0.00 980.1
20260506143339 0 0.0 0.0 0.00 0.03 0.00 980.0
20260506142339 0 0.0 0.0 0.00 0.03 0.00 979.9
20260506142047 0 0.0 0.0 0.00 0.03 0.00 979.9
20260506141838 0 0.0 0.0 0.00 0.03 0.00 979.9
20260506141338 0 0.0 0.0 0.00 0.03 0.00 980.0
20260506141055 0 0.0 0.0 0.00 0.03 0.00 979.9
20260506140838 0 0.0 0.0 0.00 0.03 0.00 979.9
20260506121137 0 0.0 0.0 0.00 0.03 0.00 978.2
20260506120838 0 0.0 0.0 0.00 0.03 0.00 978.2
20260506120015 0 0.0 0.0 0.00 0.03 0.00 978.3
20260506115838 0 0.0 0.0 0.00 0.03 0.00 978.3
20260506115657 0 0.0 0.0 0.00 0.03 0.00 978.3
20260506115338 0 0.0 0.0 0.00 0.03 0.00 978.3
20260506083634 0 0.0 0.0 0.00 0.03 0.00 977.3
20260506083337 0 0.0 0.0 0.00 0.03 0.00 977.3
20260506081829 0 0.0 0.0 0.00 0.03 0.00 977.4
20260506081337 0 0.0 0.0 0.00 0.03 0.00 977.4
20260506073106 0 0.0 0.0 0.00 0.03 0.00 977.3
20260506072837 0 0.0 0.0 0.00 0.03 0.00 977.3
20260506071218 0 0.0 0.0 0.00 0.03 0.00 977.1
20260506070838 0 0.0 0.0 0.00 0.03 0.00 977.1
20260506070337 0 0.0 0.0 0.00 0.03 0.00 977.2